Preview of NWS' New Version of Forecast
This preview is not operational and should not be used for support decisions.

Regional Weather Roundup (RWR)

Issued by National Weather Service (NWS)

                            
000
ASUS44 KJAN 191010
RWRMS 

MISSISSIPPI HOURLY WEATHER ROUNDUP
NATIONAL WEATHER SERVICE JACKSON MS
500 AM CDT FRI APR 19 2019

NOTE: "FAIR: INDICATES FEW OR NO CLOUDS BELOW 12,000 FEET WITH NO
SIGNIFICANT WEATHER AND/OR OBSTRUCTIONS TO VISIBILITY.

MSZ001>002-007>008-010>013-018>021-025>028-034>036-191100-
NORTHWEST MISSISSIPPI
  
CITY           SKY/WX    TMP DP  RH WIND       PRES   REMARKS
BATESVILLE     LGT RAIN  48  46  93 NW10G16   29.68R                  
CLARKSDALE     CLOUDY    50  50 100 NW20      29.71S                  
CLEVELAND      LGT RAIN  50  47  90 N18G26    29.72S                  
GREENWOOD      CLOUDY    50  46  86 NW10      29.69R                  
GREENVILLE     CLOUDY    52  45  77 NW13      29.72S                  
OLIVE BRANCH   CLOUDY    45 N/A N/A NW15      29.65S FOG              
OXFORD         DRIZZLE   46  45  93 NW14G23   29.67R                  
TUNICA           N/A     46  45  93 NW17G23   29.70S                  
WINONA         LGT RAIN  48  48  99 NW8       29.67R                  
$$

MSZ003>006-009-014>017-022>024-029>033-037>039-191100-
NORTHEAST MISSISSIPPI
  
CITY           SKY/WX    TMP DP  RH WIND       PRES   REMARKS
ABERDEEN       CLOUDY    50  50 100 NW9G17    29.60R FOG              
COLUMBUS AFB   DRIZZLE   52  48  87 NW14      29.59R                  
CORINTH        DRIZZLE   48  46  93 NW14      29.58S                  
GOLDN TRIANGLE CLOUDY    51  48  89 NW12G17   29.61R                  
STARKVILLE     CLOUDY    48  46  93 NW6       29.62S                  
TUPELO         CLOUDY    50  47  89 NW12G17   29.58S FOG              
$$

MSZ040-058-191100-
CENTRAL MISSISSIPPI
  
CITY           SKY/WX    TMP DP  RH WIND       PRES   REMARKS
JACKSON INTL   CLOUDY    53  45  74 NW9       29.70R                  
JACKSON HAWKNS CLOUDY    52  48  86 NW7       29.70R                  
MADISON        CLOUDY    50  48  93 NW10G16   29.69R                  
MERIDIAN KEY   CLOUDY    54  50  86 W9        29.62R                  
MERIDIAN NAS   CLOUDY    55  51  86 NW20G26   29.61R                  
RAYMOND        CLOUDY    52  52 100 NW7       29.71R                  
VICKSBURG VKS  CLOUDY    52  48  87 NW13G18   29.75R                  
$$

MSZ059>079-191100-
SOUTH MISSISSIPPI
  
CITY           SKY/WX    TMP DP  RH WIND       PRES   REMARKS
HATTIESBURG    CLOUDY    55  51  86 NW13G22   29.67S                  
LAUREL         CLOUDY    53  51  90 NW12G21   29.66R                  
MCCOMB         CLOUDY    53  46  77 NW12      29.72R                  
NATCHEZ        FAIR      49  47  93 NW7       29.78R                  
PINE BELT      CLOUDY    54  50  87 NW8       29.68R                  
$$

MSZ080>082-191100-
COASTAL MISSISSIPPI
  
CITY           SKY/WX    TMP DP  RH WIND       PRES   REMARKS
BILOXI         CLOUDY    61  57  87 NW5       29.64R                  
PASCAGOULA     CLOUDY    65  59  81 VRB7      29.63R                  
GULFPORT       LGT RAIN  59  56  89 NW14G22   29.65R                  
$$

LAZ007>009-015>016-023>026-191100-
NORTHEAST LOUISIANA
  
CITY           SKY/WX    TMP DP  RH WIND       PRES   REMARKS
BASTROP        PTSUNNY   51  44  77 NW5       29.79R                  
TALLULAH/VBURG CLOUDY    52  47  83 NW10      29.75R                  
VIDALIA        FAIR      51  48  90 W9        29.78S                  
$$